Home   Weather   Portland   Past weeks

Flag for USA Past Weather in Portland, Maine, USA — Yesterday and Last 2 Weeks

Now
48 °F

Fog.


Feels Like: 44 °F
Forecast: 38 / 43 °F
Wind: 9 mph from South

Location: Portland - Portland International Jetport

Current Time: Feb 25, 2017 at 1:23:58 pm

Latest Report: Feb 25, 2017 at 12:35 pm


Visibility: 1 mi

Pressure: 29.75 "Hg

Humidity: 96%

Dew Point: 47 °F

Location of PortlandLocation

Past Weather in Portland — Graph

°F

Portland Temperature Yesterday

Maximum temperature yesterday: 52 °F (at 2:51 pm)
Minimum temperature yesterday: 39 °F (at 8:51 pm)
Average temperature yesterday: 44 °F

High & Low Weather Summary for the Past Weeks

 TemperatureHumidityPressure
High54 °F (Feb 19, 1:51 pm)100% (Feb 24, 6:51 am)30.40 "Hg (Feb 24, 6:51 am)
Low7 °F (Feb 11, 4:04 am)33% (Feb 10, 3:51 pm)29.24 "Hg (Feb 16, 12:58 am)
Average29 °F75%29.81 "Hg
* Reported Feb 10 11:51 am — Feb 25 11:51 am, Portland, Weather by CustomWeather, © 2017

Note: Actual official high and low records may vary slightly from our data, if they occured in-between our weather recording intervals... More about our weather records

Advertising

Portland Weather History for the Previous 24 Hours

Scroll right to see more
 ConditionsComfort  
Time TempWeatherWind HumidityBarometerVisibility
11:51 am
Sat, Feb 25
47 °FFog.9 mph97%29.77 "Hg1 mi
10:51 am47 °FFog.8 mph100%29.81 "Hg1 mi
9:51 am47 °FFog.7 mph100%29.83 "Hg0 mi
8:51 am46 °FFog.9 mph100%29.85 "Hg0 mi
7:51 am45 °FFog.5 mph97%29.84 "Hg0 mi
6:51 am45 °FFog.7 mph97%29.84 "Hg0 mi
5:51 am45 °FFog.5 mph100%29.83 "Hg0 mi
4:51 am40 °FFog.No wind100%29.84 "Hg0 mi
3:51 am35 °FFog.No wind100%29.85 "Hg0 mi
3:36 am36 °FFog.3 mph92%29.85 "Hg0 mi
3:09 am36 °FFog.No wind100%29.84 "Hg0 mi
2:51 am35 °FFog.No wind92%29.84 "Hg0 mi
2:37 am36 °FFog.No wind100%29.84 "Hg0 mi
2:01 am36 °FFog.No wind97%29.84 "Hg0 mi
1:17 am37 °FFog.No wind96%29.85 "Hg0 mi
12:59 am36 °FFog.No wind100%29.85 "Hg2 mi
12:28 am37 °FFog.No wind96%29.85 "Hg2 mi
11:51 pm
Fri, Feb 24
39 °FClear.3 mph96%29.85 "Hg4 mi
10:51 pm39 °FClear.6 mph96%29.84 "Hg7 mi
9:51 pm39 °FFog.6 mph96%29.84 "Hg3 mi
9:02 pm39 °FFog.No wind100%29.85 "Hg4 mi
8:51 pm39 °FFog.No wind96%29.85 "Hg4 mi
7:51 pm40 °FFog.No wind97%29.84 "Hg4 mi
6:51 pm42 °FFog.No wind96%29.85 "Hg6 mi
5:51 pm43 °FClear.5 mph93%29.85 "Hg9 mi
4:51 pm45 °FSunny.5 mph90%29.85 "Hg7 mi
3:51 pm51 °FSunny.6 mph80%29.84 "Hg10 mi
2:51 pm52 °FBroken clouds.5 mph83%29.86 "Hg8 mi
2:13 pm50 °FFog.9 mph89%29.87 "Hg6 mi
1:51 pm50 °FPartly sunny.3 mph86%29.88 "Hg7 mi
Weather by CustomWeather, © 2017

See weather overviewHow to use our weather pages